Amateur Radio Satellites - All Passes

Search period start: 22 May 2013 04:32
Search period end: 23 May 2013 04:32
Location: Lone Wolf Observatory, 41.0360°N, 89.2260°W

Satellite Date Start Highest point End Downlink Frequencies (MHz)
Time Altitude Azimuth
Gurwin Techsat 1B 22 May 04:39:30 04:44:50 80° 103° (ESE) 04:50:09 435.225 FM
KITSAT 1 22 May 04:41:50 04:43:36 11° 7° (N) 04:45:21 435.175 FM
ISS 22 May 04:43:18 04:46:09 26° 337° (NNW) 04:49:02 145.800 FM
AO-7 22 May 05:10:08 05:17:38 35° 97° (E) 05:25:04 29.400 - 29.500 MHz
Uosat F 22 May 05:15:11 05:19:49 38° 291° (WNW) 05:24:27 435.120 FM
AO-Echo 22 May 05:24:55 05:27:11 14° 298° (WNW) 05:29:28 ?
STRAND 1 22 May 05:40:16 05:44:39 30° 67° (ENE) 05:49:03 ?
Saudisat 1A 22 May 05:57:04 06:01:31 56° 118° (ESE) 06:06:02 436.775 MHz
TMSAT-1 22 May 05:58:34 06:03:09 30° 293° (WNW) 06:07:43 436.925 FM
Gurwin Techsat 1B 22 May 06:21:26 06:24:07 14° 300° (WNW) 06:26:48 435.225 FM
ISS 22 May 06:21:58 06:23:45 14° 357° (N) 06:25:32 145.800 FM
KITSAT 1 22 May 06:36:25 06:42:44 24° 36° (NE) 06:49:01 435.175 FM
AO-7 22 May 07:02:36 07:10:38 53° 296° (WNW) 07:18:38 29.400 - 29.500 MHz
PCSat 22 May 07:02:45 07:07:23 30° 109° (ESE) 07:12:03 145.825 MHz
Hamsat 22 May 07:15:11 07:18:42 23° 94° (E) 07:22:13 145.90 MHz
STRAND 1 22 May 07:19:14 07:23:46 32° 263° (W) 07:28:20 ?
Sapphire 22 May 07:34:55 07:40:10 55° 114° (ESE) 07:45:27 437.095 MHz 1200 baud AX-25 AFSK
Saudisat 1A 22 May 07:38:07 07:41:34 21° 317° (NW) 07:45:02 436.775 MHz
ISS 22 May 07:58:56 08:01:27 19° 17° (NNE) 08:03:58 145.800 FM
SO-67 22 May 08:20:15 08:23:39 39° 98° (E) 08:27:00 435.3500 MHz FM
Oscar 10/S400 22 May 08:27:05 10:57:32 33° 266° (W) 18:06:13 145.825 - 145.975 CW/USB, Beacon 145.810 USB
KITSAT 1 22 May 08:31:13 08:39:24 83° 59° (ENE) 08:47:32 435.175 FM
JAS-1B 22 May 08:44:05 08:50:09 68° 102° (ESE) 08:55:46 435.800 - 435.900 CW/SSB
PCSat 22 May 08:45:37 08:50:40 39° 307° (NW) 08:55:45 145.825 MHz
Hamsat 22 May 08:50:57 08:54:47 31° 290° (WNW) 08:58:37 145.90 MHz
SO-50 22 May 08:57:10 09:01:54 61° 119° (ESE) 09:06:35 436.795 FM
AO-7 22 May 08:58:38 09:01:31 12° 317° (NW) 09:04:25 29.400 - 29.500 MHz
Sapphire 22 May 09:19:34 09:23:56 24° 313° (NW) 09:28:19 437.095 MHz 1200 baud AX-25 AFSK
ISS 22 May 09:35:13 09:38:35 82° 35° (NE) 09:41:57 145.800 FM
HO-68 22 May 09:42:27 09:48:49 33° 97° (E) 09:55:09 435.675 MHz FM
SO-67 22 May 09:55:04 09:56:45 13° 294° (WNW) 09:58:25 435.3500 MHz FM
JAS-2 22 May 10:19:34 10:26:14 48° 97° (E) 10:32:05 435.800 - 435.900 CW/SSB, 435.910 FM
KITSAT 1 22 May 10:28:15 10:33:49 21° 258° (WSW) 10:39:23 435.175 FM
JAS-1B 22 May 10:36:18 10:40:05 17° 303° (WNW) 10:43:40 435.800 - 435.900 CW/SSB
OPAL 22 May 10:38:31 10:42:33 24° 97° (E) 10:46:32 ?
SO-50 22 May 10:39:22 10:42:55 20° 317° (NW) 10:46:26 436.795 FM
Oscar 11 22 May 10:46:59 10:51:22 73° 102° (ESE) 10:55:44 145.825 FM, Beacon 2401.500 USB
ISS 22 May 11:13:43 11:14:51 11° 231° (SW) 11:15:59 145.800 FM
HO-68 22 May 11:29:52 11:36:38 47° 294° (WNW) 11:43:24 435.675 MHz FM
UOSAT-12 22 May 12:01:54 12:06:25 89° 122° (ESE) 12:10:59 437.025 FM, 437.400 FM
MaSat-1 22 May 12:03:05 12:06:20 57° 248° (WSW) 12:09:00 437.345 MHz
JAS-2 22 May 12:05:01 12:10:55 30° 298° (WNW) 12:16:15 435.800 - 435.900 CW/SSB, 435.910 FM
Oscar 16 22 May 12:15:34 12:17:12 11° 58° (ENE) 12:18:50 437.025 USB, Beacon 2401.1428
OPAL 22 May 12:16:56 12:21:34 39° 293° (WNW) 12:26:08 ?
Oscar 11 22 May 12:25:38 12:27:00 11° 298° (WNW) 12:28:21 145.825 FM, Beacon 2401.500 USB
ITAMSAT 1 22 May 12:30:25 12:31:55 11° 58° (ENE) 12:33:26 435.822 SSB
Uribyol 2 22 May 13:08:19 13:12:35 27° 66° (ENE) 13:16:51 436.500 FM
Oscar 19 22 May 13:12:02 13:16:36 32° 68° (ENE) 13:21:11 437.125 CW, 437.150 USB
AO-Echo 22 May 13:23:28 13:24:02 10° 60° (ENE) 13:24:36 ?
UOSAT-12 22 May 13:44:43 13:47:14 15° 321° (NW) 13:49:46 437.025 FM, 437.400 FM
Oscar 16 22 May 13:50:33 13:55:45 85° 75° (ENE) 14:00:59 437.025 USB, Beacon 2401.1428
PANSAT 22 May 13:54:37 13:56:25 13° 181° (S) 13:58:13 not established
AO-27 22 May 13:58:41 14:03:50 75° 74° (ENE) 14:09:02 436.795 MHz FM
ITAMSAT 1 22 May 14:05:25 14:10:35 84° 75° (ENE) 14:15:48 435.822 SSB
Gurwin Techsat 1B 22 May 14:23:18 14:26:31 17° 61° (ENE) 14:29:46 435.225 FM
AO-7 22 May 14:24:19 14:25:57 11° 41° (NE) 14:27:35 29.400 - 29.500 MHz
Saudisat 1A 22 May 14:24:40 14:29:03 44° 52° (NE) 14:33:20 436.775 MHz
RS-15 22 May 14:27:03 14:31:28 13° 95° (E) 14:35:48 29.354 - 29.394 USB, Beacon 29.352 USB
Uribyol 2 22 May 14:47:05 14:51:52 38° 262° (W) 14:56:43 436.500 FM
Uosat F 22 May 14:50:07 14:54:34 34° 68° (ENE) 14:59:02 435.120 FM
Oscar 19 22 May 14:51:19 14:55:54 31° 264° (W) 15:00:31 437.125 CW, 437.150 USB
AO-Echo 22 May 14:57:14 15:02:07 88° 76° (ENE) 15:06:54 ?
Oscar 16 22 May 15:34:24 15:35:45 11° 272° (W) 15:37:07 437.025 USB, Beacon 2401.1428
TMSAT-1 22 May 15:39:10 15:44:16 52° 72° (ENE) 15:49:25 436.925 FM
AO-27 22 May 15:41:43 15:43:56 13° 271° (W) 15:46:09 436.795 MHz FM
ITAMSAT 1 22 May 15:49:23 15:50:45 11° 271° (W) 15:52:07 435.822 SSB
PCSat 22 May 15:50:26 15:55:00 26° 48° (NE) 15:59:32 145.825 MHz
Gurwin Techsat 1B 22 May 16:00:39 16:05:55 68° 258° (WSW) 16:11:14 435.225 FM
Saudisat 1A 22 May 16:05:06 16:08:26 20° 249° (WSW) 16:11:42 436.775 MHz
AO-7 22 May 16:08:53 16:16:41 48° 63° (ENE) 16:24:31 29.400 - 29.500 MHz
Sapphire 22 May 16:23:04 16:28:15 43° 54° (NE) 16:33:24 437.095 MHz 1200 baud AX-25 AFSK
Uosat F 22 May 16:29:08 16:33:23 28° 264° (W) 16:37:40 435.120 FM
RS-15 22 May 16:29:42 16:41:33 65° 115° (ESE) 16:52:54 29.354 - 29.394 USB, Beacon 29.352 USB
TMSAT-1 22 May 17:20:47 17:24:30 19° 268° (W) 17:28:16 436.925 FM
SO-50 22 May 17:29:37 17:34:05 51° 53° (NE) 17:38:26 436.795 FM
PCSat 22 May 17:33:27 17:38:40 49° 247° (WSW) 17:43:51 145.825 MHz
JAS-1B 22 May 17:41:33 17:45:31 14° 54° (NE) 17:49:13 435.800 - 435.900 CW/SSB
AO-7 22 May 18:01:57 18:09:33 39° 262° (W) 18:17:13 29.400 - 29.500 MHz
Sapphire 22 May 18:06:57 18:11:27 27° 252° (WSW) 18:15:55 437.095 MHz 1200 baud AX-25 AFSK
Hamsat 22 May 18:10:07 18:12:54 17° 66° (ENE) 18:15:41 145.90 MHz
RS-15 22 May 18:43:22 18:54:34 44° 318° (NW) 19:05:22 29.354 - 29.394 USB, Beacon 29.352 USB
UOSAT-12 22 May 18:53:23 18:55:22 13° 37° (NE) 18:57:21 437.025 FM, 437.400 FM
SO-67 22 May 18:57:12 18:59:23 16° 67° (ENE) 19:01:34 435.3500 MHz FM
SO-50 22 May 19:11:20 19:14:16 17° 250° (WSW) 19:17:11 436.795 FM
JAS-1B 22 May 19:25:47 19:34:54 65° 71° (ENE) 19:42:40 435.800 - 435.900 CW/SSB
STRAND 1 22 May 19:29:17 19:34:28 86° 104° (ESE) 19:39:37 ?
Hamsat 22 May 19:44:41 19:48:39 40° 262° (W) 19:52:40 145.90 MHz
HO-68 22 May 20:11:44 20:17:24 27° 59° (ENE) 20:23:05 435.675 MHz FM
SO-67 22 May 20:29:23 20:32:35 31° 263° (W) 20:35:49 435.3500 MHz FM
JAS-2 22 May 20:30:32 20:36:43 27° 60° (ENE) 20:42:55 435.800 - 435.900 CW/SSB, 435.910 FM
UOSAT-12 22 May 20:31:45 20:36:22 73° 56° (NE) 20:40:57 437.025 FM, 437.400 FM
RS-15 22 May 21:02:51 21:11:08 21° 350° (N) 21:19:11 29.354 - 29.394 USB, Beacon 29.352 USB
STRAND 1 22 May 21:10:46 21:12:56 13° 301° (WNW) 21:15:06 ?
JAS-1B 22 May 21:17:52 21:25:38 30° 265° (W) 21:32:35 435.800 - 435.900 CW/SSB
Oscar 11 22 May 21:42:09 21:46:22 56° 74° (ENE) 21:50:37 145.825 FM, Beacon 2401.500 USB
OPAL 22 May 21:52:57 21:57:52 45° 68° (ENE) 22:02:46 ?
HO-68 22 May 21:57:31 22:04:34 63° 257° (WSW) 22:11:40 435.675 MHz FM
JAS-2 22 May 22:13:20 22:21:01 72° 258° (WSW) 22:28:53 435.800 - 435.900 CW/SSB, 435.910 FM
UOSAT-12 22 May 22:14:02 22:15:55 12° 252° (WSW) 22:17:49 437.025 FM, 437.400 FM
KITSAT 1 22 May 22:58:54 23:06:45 60° 114° (ESE) 23:14:41 435.175 FM
RS-15 22 May 23:19:34 23:28:52 28° 27° (NNE) 23:37:52 29.354 - 29.394 USB, Beacon 29.352 USB
Oscar 11 22 May 23:21:03 23:22:57 13° 269° (W) 23:24:50 145.825 FM, Beacon 2401.500 USB
OPAL 22 May 23:32:55 23:36:56 22° 264° (W) 23:40:57 ?
JAS-2 23 May 00:03:59 00:07:13 13° 276° (W) 00:10:29 435.800 - 435.900 CW/SSB, 435.910 FM
MaSat-1 23 May 00:52:11 00:57:36 24° 105° (ESE) 01:02:23 437.345 MHz
KITSAT 1 23 May 00:55:19 01:02:34 36° 315° (NW) 01:09:54 435.175 FM
Oscar 19 23 May 01:26:31 01:27:35 11° 88° (E) 01:28:38 437.125 CW, 437.150 USB
RS-15 23 May 01:32:18 01:43:30 76° 55° (NE) 01:54:22 29.354 - 29.394 USB, Beacon 29.352 USB
Oscar 16 23 May 02:02:59 02:07:32 31° 96° (E) 02:12:03 437.025 USB, Beacon 2401.1428
AO-27 23 May 02:12:27 02:16:53 27° 95° (E) 02:21:17 436.795 MHz FM
ISS 23 May 02:17:45 02:20:37 27° 135° (SE) 02:23:30 145.800 FM
ITAMSAT 1 23 May 02:18:56 02:23:32 31° 96° (E) 02:28:07 435.822 SSB
MaSat-1 23 May 02:32:32 02:39:33 64° 297° (WNW) 02:45:17 437.345 MHz
KITSAT 1 23 May 02:57:29 03:00:54 13° 342° (NNW) 03:04:21 435.175 FM
Uribyol 2 23 May 02:59:30 03:04:46 78° 103° (ESE) 03:10:00 436.500 FM
Oscar 19 23 May 03:02:24 03:07:36 86° 285° (WNW) 03:12:44 437.125 CW, 437.150 USB
AO-Echo 23 May 03:04:55 03:08:59 28° 96° (E) 03:13:07 ?
Oscar 16 23 May 03:42:18 03:46:52 32° 292° (WNW) 03:51:24 437.025 USB, Beacon 2401.1428
RS-15 23 May 03:45:56 03:54:41 29° 257° (WSW) 04:03:22 29.354 - 29.394 USB, Beacon 29.352 USB
AO-27 23 May 03:51:41 03:56:27 37° 292° (WNW) 04:01:12 436.795 MHz FM
ISS 23 May 03:54:08 03:57:14 37° 332° (NNW) 04:00:23 145.800 FM
TMSAT-1 23 May 03:55:57 03:59:57 21° 93° (E) 04:03:55 436.925 FM
ITAMSAT 1 23 May 03:58:23 04:03:00 33° 293° (WNW) 04:07:38 435.822 SSB
AO-7 23 May 04:13:18 04:16:49 13° 87° (E) 04:20:20 29.400 - 29.500 MHz
Gurwin Techsat 1B 23 May 04:17:06 04:22:16 50° 99° (E) 04:27:24 435.225 FM
MaSat-1 23 May 04:19:47 04:22:26 13° 313° (NW) 04:24:53 437.345 MHz

Developed and maintained by Chris Peat, Heavens-Above GmbH. Please read the updated FAQ before sending e-mail. Imprint. DLR
